Change the Weather History Date:

Monday, June 4, 2012

  Actual Average Record
Temperature  
Mean Temperature 72 °F 73 °F  
Max Temperature 80 °F 83 °F 96 °F (1936)
Min Temperature 64 °F 64 °F 46 °F (1969)
Cooling Degree Days 6 8  
Month to date cooling degree days 32  
Year to date cooling degree days 207  
Since 1 June cooling degree days 32  
Growing Degree Days 22 (Base 50)    
Moisture  
Dew Point 64 °F    
Average Humidity 80    
Maximum Humidity 94    
Minimum Humidity 60    
Precipitation  
Precipitation 0.84 in 0.14 in 3.95 in (1967)
Month to date precipitation 0.55  
Year to date precipitation 23.47  
Sea Level Pressure  
Sea Level Pressure 29.86 in    
Wind  
Wind Speed 9 mph (West)    
Max Wind Speed 29 mph    
Max Gust Speed 44 mph    
Visibility 8 miles    
Events Fog , Rain , Thunderstorm    
T = Trace of Precipitation, MM = Missing Value Source: NWS Daily Summary

Daily Weather History Graph

Daily Weather History Graph

Search for Another Location

Airport or City:

Trip Planner

Search our weather history database for the weather conditions in past years. The results will help you decide how hot, cold, wet, or windy it might be!

Date:

Astronomy

Jun. 04, 2012 Rise Set
Actual Time 6:23 AM EDT 8:44 PM EDT
Civil Twilight 5:54 AM EDT 9:13 PM EDT
Nautical Twilight 5:18 AM EDT 9:48 PM EDT
Astronomical Twilight 4:40 AM EDT 10:27 PM EDT
Moon 9:13 PM EDT (6/4) 6:28 AM EDT (6/4)
Length of Visible Light 15h 18m
Length of Day
14h 20m
Full, 100% of the Moon is Illuminated
Jun 4
Full
Jun 11
Last Quarter
Jun 19
New
Jun 26
First Quarter
Jul 3
Full

Hourly Weather History & Observations

Time (EDT) Temp. Dew Point Humidity Pressure Visibility Wind Dir Wind Speed Gust Speed Precip Events Conditions
12:53 AM 73.0 °F 66.0 °F 79% 29.86 in 10.0 mi West 5.8 mph - N/A   Clear
1:53 AM 73.9 °F 64.9 °F 73% 29.85 in 10.0 mi West 6.9 mph - N/A   Mostly Cloudy
2:04 AM 73.4 °F 64.4 °F 73% 29.89 in 10.0 mi West 6.9 mph - N/A Thunderstorm Scattered Clouds
2:24 AM 69.8 °F 64.4 °F 83% 29.95 in 1.5 mi NW 28.8 mph 43.7 mph 0.16 in Rain , Thunderstorm Heavy Thunderstorms and Rain
2:30 AM 64.4 °F 60.8 °F 88% 29.94 in 0.5 mi West 11.5 mph 43.7 mph 0.58 in Rain Heavy Rain
2:32 AM 64.4 °F 60.8 °F 88% 29.94 in 0.5 mi West 10.4 mph 36.8 mph 0.69 in Fog , Rain , Thunderstorm Heavy Thunderstorms and Rain
2:40 AM 64.4 °F 60.8 °F 88% 29.94 in 1.5 mi West 8.1 mph 18.4 mph 0.73 in Rain , Thunderstorm Thunderstorms and Rain
2:42 AM 64.4 °F 62.6 °F 94% 29.94 in 2.5 mi West 8.1 mph 18.4 mph 0.74 in Rain , Thunderstorm Thunderstorms and Rain
2:49 AM 64.4 °F 60.8 °F 88% 29.94 in 4.0 mi West 10.4 mph 19.6 mph 0.77 in Rain , Thunderstorm Thunderstorms and Rain
2:53 AM 64.9 °F 62.1 °F 90% 29.90 in 4.0 mi West 10.4 mph 19.6 mph 0.78 in Rain , Thunderstorm Thunderstorms and Rain
3:53 AM 66.9 °F 64.9 °F 93% 29.86 in 10.0 mi West 6.9 mph - 0.06 in Rain , Thunderstorm Light Rain
4:00 AM 66.2 °F 64.4 °F 94% 29.90 in 10.0 mi WNW 6.9 mph - 0.00 in Rain Light Rain
4:53 AM 66.9 °F 64.9 °F 93% 29.86 in 10.0 mi WNW 6.9 mph - 0.00 in   Partly Cloudy
6:53 AM 66.9 °F 64.9 °F 93% 29.82 in 10.0 mi WSW 4.6 mph - N/A   Overcast
8:53 AM 66.9 °F 63.0 °F 87% 29.85 in 10.0 mi West 8.1 mph - N/A   Mostly Cloudy
9:53 AM 66.0 °F 63.0 °F 90% 29.87 in 10.0 mi West 9.2 mph - 0.00 in Rain Light Rain
10:15 AM 66.2 °F 64.4 °F 94% 29.91 in 10.0 mi West 11.5 mph - 0.00 in Rain Light Rain
10:53 AM 66.0 °F 64.0 °F 93% 29.88 in 10.0 mi West 10.4 mph - 0.00 in   Mostly Cloudy
11:17 AM 68.0 °F 64.4 °F 88% 29.92 in 10.0 mi WNW 9.2 mph - N/A   Overcast
11:49 AM 69.8 °F 64.4 °F 83% 29.91 in 10.0 mi WNW 11.5 mph 21.9 mph N/A   Scattered Clouds
11:53 AM 70.0 °F 64.9 °F 84% 29.87 in 10.0 mi WNW 11.5 mph 21.9 mph N/A   Partly Cloudy
12:53 PM 72.0 °F 63.0 °F 73% 29.86 in 10.0 mi WNW 11.5 mph - N/A   Clear
1:53 PM 75.0 °F 64.0 °F 69% 29.83 in 10.0 mi West 9.2 mph - N/A   Mostly Cloudy
2:53 PM 78.1 °F 64.0 °F 62% 29.81 in 10.0 mi West 12.7 mph 18.4 mph N/A   Partly Cloudy
3:53 PM 78.1 °F 64.0 °F 62% 29.81 in 10.0 mi WNW 11.5 mph 20.7 mph N/A   Partly Cloudy
4:53 PM 79.0 °F 64.0 °F 60% 29.79 in 10.0 mi West 11.5 mph 16.1 mph N/A   Mostly Cloudy
5:53 PM 79.0 °F 64.0 °F 60% 29.78 in 10.0 mi West 10.4 mph - N/A   Clear
6:53 PM 78.1 °F 64.0 °F 62% 29.77 in 10.0 mi West 8.1 mph - N/A   Clear
7:53 PM 77.0 °F 63.0 °F 62% 29.78 in 10.0 mi West 9.2 mph - N/A   Clear
8:53 PM 73.9 °F 63.0 °F 68% 29.78 in 10.0 mi West 6.9 mph - N/A   Clear
9:53 PM 72.0 °F 64.0 °F 76% 29.79 in 10.0 mi West 6.9 mph - N/A   Clear
10:53 PM 71.1 °F 64.9 °F 81% 29.79 in 10.0 mi West 8.1 mph - N/A   Clear
11:53 PM 70.0 °F 64.9 °F 84% 29.78 in 10.0 mi West 8.1 mph - N/A   Mostly Cloudy